Regional Weather Roundup
Issued by NWS Newport/Morehead, NC

Current Version | Previous Version | Text Only | Print | Product List | Glossary On
Versions: 1 2 3 4 5 6 7 8 9 10 11 12 13 14 15 16 17 18 19 20 21 22 23 24 25 26 27 28 29 30 31 32 33 34 35 36 37 38 39 40 41 42 43 44 45 46 47 48 49 50
000 ASUS42 KMHX 010622 RWRMHX WEATHER ROUNDUP FOR EASTERN NORTH CAROLINA NATIONAL WEATHER SERVICE NEWPORT/MOREHEAD CITY NC 200 AM EDT MON SEP 01 2014 NOTE: "FAIR" INDICATES FEW OR NO CLOUDS BELOW 12,000 FEET WITH NO SIGNIFICANT WEATHER AND/OR OBSTRUCTIONS TO VISIBILITY NCZ015>017-031-032-045>047-102-103-010700- NORTH COAST CITY SKY/WX TMP DP RH WIND PRES REMARKS EDENTON FAIR 77 75 93 S8 30.09F ELIZABETH CITY FAIR 78 75 90 S9 30.09S KITTY HAWK FAIR 78 75 90 SW7 30.09S MANTEO FAIR 78 75 90 S10 30.10F $$ NCZ045>047-081-094-103-104-010700- CENTRAL COAST CITY SKY/WX TMP DP RH WIND PRES REMARKS FRISCO FAIR 80 76 87 SW12G20 30.11F SWANQUARTER N/A 81 N/A N/A S12 30.06S $$ NCZ095-097-098-100-101-010700- SOUTHERN COAST CITY SKY/WX TMP DP RH WIND PRES REMARKS BEAUFORT FAIR 81 77 88 S12 30.11F CEDAR ISLAND N/A 79 N/A N/A S3 30.15S JACKSONVILLE FAIR 77 75 93 S5 30.10F NEWPORT NOT AVBL PINEY ISLAND FAIR 78 76 93 S5 30.10F WILMINGTON FAIR 76 74 93 CALM 30.10F $$ NCZ011>013-027>030-043-044-078>080-089-090>093-098-010700- COASTAL PLAIN CITY SKY/WX TMP DP RH WIND PRES REMARKS AHOSKIE FAIR 73 71 95 S3 30.09S CLINTON FAIR 75 73 94 CALM 30.10F ELIZABETHTOWN FAIR 75 74 97 CALM 30.10F GOLDSBORO FAIR 76 76 98 SW2 30.08F GREENVILLE FAIR 77 75 94 SW8 30.11S HAVELOCK FAIR 77 74 90 S5 30.12F KENANSVILLE FAIR 74 73 94 CALM 30.11S KINSTON FAIR 76 74 93 S5 30.10F NEW BERN FAIR 77 74 90 CALM 30.11F RICHLANDS FAIR 73 70 88 CALM 30.10F ROANOKE RAPIDS NOT AVBL ROCKY MOUNT FAIR 77 73 87 S7 30.09F WASHINGTON FAIR 76 74 93 SW5 30.10F WHITEVILLE FAIR 75 73 92 CALM 30.10F $$ AMZ130-135-150-152-154-156-158-170-250-252-270-ANZ085-086-088-633-658-670-010700- MARINE OBSERVATIONS STATION/POSITION TIME TEMP WIND PRES WAVE SWELL AIR SEA DIR/SP/G HT/PER HT/PER (UTC) (F) (DEG/KT/KT) (MB) (FT/S) (FT/S) CHESAPEAKE LIGHT 0600 79 210/ 17/ 18 1018.6 BUOY 44014 0600 78 78 200/ 14/ 16 1018.3 3/ 9 2/ 9 DUCK 0600 79 75 200/ 7/ 12 1018.3 2E DUCK 0600 N/A 2/ 9 OREGON INLET 0600 81 82 200/ 14/ 17 1019.3 BUOY 44095 0600 78 N/A 3/ 9 20E OREGON INLET NOT AVBL HATTERAS CG 0600 81 84 210/ 11/ 14 1020.1 DIAMOND BUOY 0600 82 200/ 16/ 17 1019.8 4/ 8 3/ 8 CAPE LOOKOUT 0600 81 200/ 10/ 11 1019.6 BEAUFORT LAB 0600 82 83 200/ 10/ 13 1019.0 30 SE NEW RIVER 0600 82 83 190/ 12/ 14 1019.9 3/ 9 2/ 9 5 SE WRIGHTSVILL 0600 78 82 220/ 12/ 14 N/A BUOY 41002 0518 81 83 200/ 6/ 8 1021.9 3/ 9 2/ 9 BUOY 41004 0600 82 83 220/ 10/ 12 1019.2 2/ 9 2/ 9 $$

USA.gov is the U.S. government's official web portal to all federal, state and local government web resources and services.